RH
42 16 10 13 11 9 9 9 8 7 7 7 7 6 7 6 6 6 5 6 5 6 5 5 5 4 6 7 15 24 23 20 23 37 36 17 9 9 9 7 9 19 26 28 36 49 53 54 61 59 52 51 46 42 48 48 41 38 35 33 30 28 28 27 31 32 31 34 39 43 41 45 50 50 50 50 52 52 53 53 52 53 51 52 60 64 70 74
75 41 15 11 14 11 9 9 8 8 7 6 7 6 6 6 6 6 6 5 5 6 5 6 4 4 6 7 19 24 21 24 30 37 25 11 11 12 12 9 9 15 22 26 34 46 47 49 57 55 49 46 41 39 45 46 39 33 31 32 29 25 24 23 27 29 29 33 38 41 40 40 44 50 50 52 57 54 54 58 56 59 60 59 64 68 72 75
94 72 38 17 13 14 11 9 8 8 8 7 7 7 6 6 6 5 5 5 5 5 5 5 4 6 6 11 22 23 29 37 28 20 14 13 12 11 15 12 9 12 16 22 26 34 36 44 54 51 46 37 32 37 39 41 39 31 29 32 27 23 23 22 24 27 28 32 37 41 39 39 43 47 47 51 57 54 53 58 59 62 64 63 64 67 72 75
95 91 73 38 14 15 15 10 9 8 8 7 6 7 6 6 6 6 5 5 5 5 5 5 5 6 7 17 24 23 39 38 14 8 12 14 11 11 16 13 12 12 13 16 19 24 28 42 51 44 39 27 23 31 32 36 36 29 29 30 25 22 22 22 23 24 28 31 35 39 40 42 44 44 45 50 56 54 51 51 53 57 62 64 63 65 70 73
92 95 91 58 21 14 15 11 10 9 8 7 7 7 6 6 6 6 6 5 5 5 5 6 6 7 12 23 26 28 37 23 6 9 11 14 14 12 15 13 12 14 15 15 18 21 26 43 44 31 26 18 18 25 26 30 29 26 27 26 23 23 21 21 21 23 29 31 35 39 40 41 43 43 44 47 49 47 45 46 49 52 58 61 61 65 68 69
92 93 92 70 38 20 14 15 12 8 9 7 7 7 6 7 5 6 6 5 6 4 5 7 8 11 19 26 30 34 28 13 10 11 10 14 16 15 17 17 15 15 17 16 20 19 23 36 31 21 19 13 17 21 21 24 25 25 25 24 24 22 20 21 21 24 30 33 36 38 37 40 43 43 43 43 41 37 38 43 48 53 57 59 61 64 66 66
93 93 92 76 54 33 19 19 15 9 9 8 8 7 6 7 5 6 5 5 5 4 7 9 12 18 23 32 39 37 25 16 13 11 13 14 15 19 20 21 19 18 19 18 21 16 18 28 22 16 17 14 16 18 17 19 22 25 23 22 23 22 21 21 22 26 30 33 34 35 36 41 43 43 43 40 38 37 38 43 50 56 58 59 61 63 64 65
95 94 96 83 64 53 34 21 17 11 9 8 8 7 7 6 6 7 5 6 4 5 10 10 19 26 28 38 37 27 23 19 13 12 14 13 13 17 20 26 25 21 20 18 19 15 16 22 18 14 15 13 15 16 16 16 20 23 22 20 21 22 22 21 22 26 30 31 33 35 38 40 40 41 43 40 38 40 41 46 54 58 60 59 62 64 65 66
98 94 96 89 77 73 56 30 17 12 9 9 8 7 7 6 7 6 5 6 4 8 12 16 30 32 33 44 32 19 20 15 11 14 15 13 14 15 20 31 33 25 20 18 17 15 14 16 14 12 12 12 14 15 14 15 17 18 20 19 19 21 22 22 23 26 29 32 34 37 39 40 40 40 42 39 40 44 46 51 56 60 61 60 62 64 66 67
101 97 94 94 89 85 72 43 20 12 9 8 8 7 7 6 6 7 7 6 6 12 16 26 41 40 47 49 27 19 19 11 13 16 14 16 16 17 20 27 35 28 19 18 16 14 13 12 11 12 12 12 14 14 13 14 13 14 17 18 18 20 23 23 24 27 29 32 34 36 41 41 40 40 40 39 43 47 51 56 59 62 63 60 61 63 67 68
100 100 95 97 96 90 85 61 28 13 10 8 8 7 6 6 7 9 10 8 11 18 26 40 46 48 60 49 23 20 18 12 17 16 15 17 17 18 18 23 34 29 19 18 16 13 12 10 12 13 12 12 14 14 12 12 11 13 16 21 23 23 25 24 24 28 29 33 34 34 41 42 41 41 37 40 47 49 53 60 61 62 63 62 63 64 68 69
99 101 97 98 97 91 87 67 34 15 10 9 7 7 6 6 8 12 11 12 19 29 39 46 46 56 64 45 26 20 15 15 17 17 18 17 18 18 17 22 30 27 20 17 15 14 12 11 13 13 11 12 13 12 12 10 11 15 16 23 29 26 27 26 26 28 27 33 34 33 41 44 44 42 38 43 49 49 54 61 62 62 64 64 65 66 67 68
100 101 98 99 98 89 79 59 35 19 11 8 7 7 5 6 11 12 12 19 34 45 47 43 51 71 62 33 23 18 15 19 19 19 20 19 21 19 19 23 26 24 19 16 16 14 12 13 14 12 12 12 12 11 14 15 15 20 21 23 29 29 29 28 27 27 28 34 32 31 38 40 40 41 43 47 49 52 57 62 62 63 64 65 67 67 66 67
100 100 99 99 97 89 74 51 33 21 11 9 9 5 6 9 11 13 20 36 49 52 49 49 62 76 56 27 22 20 20 24 22 21 20 23 24 21 24 26 24 20 17 16 15 13 13 14 14 12 11 11 10 11 18 22 21 24 25 25 27 28 29 30 30 28 32 38 31 29 33 31 33 40 46 48 48 52 57 61 62 62 63 64 67 66 66 66
100 100 98 93 85 77 63 44 29 19 12 10 7 5 8 11 14 25 40 53 55 50 53 63 68 66 50 32 24 21 23 24 22 20 19 23 22 19 24 28 24 19 17 16 14 13 14 14 13 11 9 10 9 13 22 25 25 25 25 28 28 27 31 34 32 29 34 40 31 29 33 29 30 38 46 48 48 50 54 59 59 61 62 62 65 66 65 65
100 100 97 88 76 62 47 33 22 17 13 9 6 6 9 16 31 47 56 57 52 51 62 73 75 64 41 27 23 19 21 23 19 18 18 19 18 15 20 25 23 20 19 18 15 13 14 13 12 9 9 10 9 15 23 26 29 28 23 29 31 28 34 37 34 30 32 39 34 30 32 32 34 39 45 49 49 49 53 57 58 59 60 60 62 63 64 66
99 100 99 92 81 62 41 27 19 16 11 7 8 6 12 33 54 61 62 59 54 61 71 75 78 66 35 21 22 18 19 20 17 17 16 17 17 15 16 19 18 19 18 16 15 13 12 12 10 10 9 10 13 17 24 28 31 30 26 30 31 29 34 36 36 33 33 37 36 34 32 33 41 46 47 50 50 50 53 56 58 58 59 60 60 60 62 66
99 101 99 96 90 68 43 27 20 15 10 10 10 9 24 51 64 65 68 67 62 67 73 74 71 49 24 21 23 19 18 17 14 14 14 16 18 15 13 14 15 17 16 12 14 13 12 12 10 11 10 11 17 18 21 26 27 29 28 29 30 31 33 34 36 34 35 37 34 37 36 32 43 50 49 50 50 51 52 54 56 57 59 60 61 61 62 64
100 100 99 99 92 67 40 28 23 17 15 16 8 13 40 61 63 67 73 68 57 48 43 51 52 29 17 20 19 17 16 14 14 13 14 17 18 15 11 13 14 15 16 13 13 13 11 13 12 12 11 10 16 17 16 20 23 25 25 26 28 30 32 32 33 32 35 39 35 37 38 33 42 51 50 50 51 52 52 53 55 57 58 60 62 62 61 63
100 100 100 97 87 59 30 24 24 19 25 24 10 13 32 40 37 41 49 49 40 30 22 28 35 25 20 20 16 16 14 14 16 14 16 17 16 15 12 11 12 12 14 12 12 12 11 13 13 11 11 9 13 17 16 18 23 24 24 26 25 27 32 32 31 32 34 40 39 37 38 36 41 50 50 49 52 54 54 55 57 57 58 60 62 62 62 62
99 100 99 91 81 51 22 22 22 23 34 30 18 15 17 22 24 24 28 26 22 24 23 21 22 21 18 15 14 16 16 16 17 16 18 17 14 17 14 10 12 13 13 12 11 11 11 13 13 10 10 9 11 16 18 21 24 24 25 27 27 27 30 30 30 32 33 38 40 40 41 40 42 49 50 49 53 55 53 55 57 57 58 59 61 62 62 61
99 100 95 84 74 46 20 18 19 28 36 29 30 27 19 25 27 24 26 20 17 19 20 20 20 19 17 16 16 17 18 18 18 16 16 16 15 17 16 11 13 15 12 12 12 12 13 12 11 9 10 10 11 13 17 22 25 24 24 26 29 27 26 28 29 32 34 36 38 40 41 39 41 47 49 50 52 52 50 50 53 55 57 59 59 61 61 61
101 99 91 77 67 45 21 15 24 37 34 34 51 43 25 27 21 21 26 20 19 18 16 19 18 18 18 17 18 18 19 20 17 14 14 17 16 15 15 13 13 13 12 11 11 13 14 11 9 10 11 12 13 15 15 19 24 24 23 26 29 26 26 27 29 33 34 34 36 39 39 38 41 48 50 50 49 49 49 48 49 51 54 56 55 56 59 60
96 93 87 70 63 51 21 13 31 38 30 38 53 40 26 26 19 21 26 20 19 18 17 18 16 18 18 15 18 19 19 20 17 15 15 16 16 15 15 13 14 13 11 11 11 12 11 11 11 10 12 13 14 16 14 16 22 24 23 24 25 26 26 25 29 34 34 35 35 35 38 37 39 46 48 48 49 49 49 49 50 50 50 51 51 52 55 57
86 80 73 60 65 59 21 16 36 31 25 33 33 30 28 22 19 24 27 24 22 20 19 20 18 18 17 17 19 19 20 21 18 15 16 16 14 16 16 13 14 14 12 11 11 11 10 11 12 11 13 14 13 16 14 13 18 23 22 21 21 23 24 26 30 31 34 38 34 33 40 39 39 44 43 45 52 53 51 52 52 52 50 50 51 52 52 53
76 64 55 55 69 69 34 22 39 33 27 27 20 25 26 17 20 27 30 31 25 19 18 20 20 17 17 20 20 20 20 19 18 17 16 16 13 15 17 15 15 16 12 10 12 12 11 11 12 12 13 14 14 15 14 12 15 21 21 18 18 20 22 27 29 28 33 37 32 30 36 37 38 42 42 45 54 55 53 54 52 51 51 50 50 50 49 50
61 44 42 52 66 85 70 43 47 46 29 19 16 20 20 16 21 27 30 29 23 20 21 21 22 17 16 20 20 20 18 15 18 19 17 16 13 13 16 16 16 16 12 12 15 13 12 13 13 13 13 14 14 14 15 14 13 17 17 16 18 19 21 27 27 27 29 32 34 33 32 36 36 37 44 48 53 57 56 56 53 50 50 49 48 47 47 48
47 30 34 48 60 87 91 73 78 68 28 12 18 19 17 19 24 27 28 25 20 20 21 21 20 17 17 20 20 18 16 14 16 18 17 15 13 13 15 16 16 14 12 14 16 13 11 13 13 14 13 13 13 13 16 15 13 16 16 14 17 18 20 25 23 24 28 31 40 40 35 40 39 37 48 51 52 58 57 55 54 51 50 48 46 45 44 46
42 27 24 37 52 67 79 87 86 56 19 14 22 18 18 26 30 28 25 21 19 17 16 16 16 15 19 22 22 19 18 16 14 16 18 16 14 14 15 16 14 14 13 13 15 12 10 12 11 11 12 12 12 13 16 15 13 15 15 14 16 19 23 25 23 26 33 34 40 42 38 41 38 35 46 54 54 54 50 50 50 49 49 48 46 45 43 45
40 26 16 34 63 73 84 92 62 24 16 23 21 17 23 32 30 27 29 24 18 16 15 14 15 16 20 23 22 21 21 18 15 18 19 17 15 12 12 13 11 13 13 12 14 12 11 14 13 11 11 11 11 14 15 14 13 14 15 14 17 24 28 30 29 31 38 38 35 36 37 37 32 29 40 50 50 45 41 43 46 47 48 47 47 45 42 44
38 24 14 33 67 84 89 74 37 17 23 24 19 20 26 30 28 29 33 24 14 17 16 15 16 16 17 19 17 18 22 20 16 18 20 19 16 13 13 14 13 15 15 13 14 13 12 14 13 11 12 11 10 13 15 14 13 12 14 15 19 27 29 31 35 34 38 38 30 30 35 37 33 27 34 39 37 36 36 36 40 43 46 46 46 44 42 43
34 21 13 21 46 75 71 41 26 26 23 22 25 24 23 24 27 31 30 20 14 18 17 16 17 16 15 16 15 17 21 20 16 17 19 19 18 15 15 16 16 19 20 17 15 14 13 12 11 11 12 11 10 12 15 16 13 11 13 16 20 27 30 32 36 36 36 34 29 30 35 40 38 29 30 34 32 33 33 31 33 36 40 44 45 44 43 43
28 17 14 14 32 58 49 31 38 38 30 34 31 23 22 24 27 27 21 18 17 17 18 17 16 16 16 14 13 16 18 18 16 15 16 17 19 17 15 14 14 17 20 18 15 15 14 12 11 10 10 11 9 10 14 17 15 13 14 17 20 25 29 33 37 37 35 30 29 32 36 40 37 28 27 28 26 26 29 30 31 32 36 41 43 43 42 42
24 16 15 17 29 41 38 41 52 51 52 50 29 18 25 28 30 27 19 16 17 16 17 17 16 15 15 13 14 15 16 16 16 15 16 17 19 19 16 14 13 14 16 16 15 15 16 15 12 10 10 11 9 8 11 15 15 13 12 14 18 21 23 27 30 30 28 29 34 39 38 35 31 28 28 26 23 24 24 26 30 32 34 36 39 39 39 40
20 15 16 23 32 40 48 54 52 57 64 44 16 17 25 24 26 27 21 16 16 16 15 15 16 15 14 15 16 16 15 16 16 15 16 16 18 19 17 15 14 13 13 17 17 14 15 15 11 10 10 10 10 9 9 13 14 14 13 13 17 18 18 23 27 26 25 27 37 43 37 31 28 28 27 25 25 26 24 24 28 31 34 35 36 37 38 39
24 22 23 30 40 51 64 62 55 64 60 25 8 18 20 17 18 21 23 20 16 17 16 15 16 16 16 16 17 17 15 15 16 15 16 16 16 17 16 14 13 12 12 16 17 15 16 15 10 10 11 9 9 9 9 11 13 15 16 15 17 14 14 23 28 30 27 22 32 41 34 28 27 23 22 24 24 25 27 27 25 29 35 37 38 38 37 37
56 59 50 43 47 58 68 66 62 68 50 15 8 15 13 12 14 17 22 20 15 15 16 17 17 17 17 16 16 17 14 13 15 16 17 17 16 16 15 14 12 11 11 12 15 15 14 14 12 11 10 8 9 9 9 9 10 14 15 14 16 14 16 26 29 29 28 21 29 38 30 24 25 21 22 26 24 21 24 26 26 31 37 37 37 38 38 37
87 88 73 56 51 56 67 70 68 62 36 10 12 17 13 11 11 14 16 14 13 13 14 17 18 18 17 17 17 16 13 12 13 15 15 16 17 15 14 14 12 11 10 9 13 14 12 12 13 11 9 9 9 9 10 10 9 12 13 11 14 16 22 32 30 27 27 23 26 33 30 26 24 19 18 19 20 21 23 28 30 31 34 35 34 37 40 39
90 76 55 50 51 51 62 69 63 49 25 13 16 17 15 12 9 13 14 12 12 12 12 14 15 17 17 17 16 14 13 13 13 15 15 16 18 15 13 14 12 11 10 9 12 13 12 13 14 12 10 9 9 9 9 10 10 11 12 11 12 15 20 26 23 20 23 24 24 28 31 28 23 21 18 15 18 22 23 28 32 29 31 34 33 35 40 41
85 58 32 43 51 48 57 60 51 38 24 20 17 13 17 15 10 13 14 13 13 11 11 13 14 16 16 15 15 14 15 15 14 15 16 16 16 15 13 12 12 12 10 10 11 12 14 16 16 14 12 10 10 10 7 8 10 11 13 13 14 16 17 18 19 19 19 23 26 25 25 23 22 25 23 18 19 22 22 26 31 29 28 30 32 34 40 43
82 52 34 51 57 50 56 53 41 33 25 24 20 12 13 14 11 13 13 13 13 11 11 13 14 15 15 14 15 15 16 15 13 15 15 14 15 15 13 11 12 12 10 12 12 11 15 18 17 15 13 12 10 8 7 6 7 9 11 13 13 14 16 17 22 23 18 21 26 24 21 17 18 24 25 22 20 17 19 23 26 26 26 29 33 34 39 44
70 40 31 50 56 52 47 37 34 35 27 25 23 15 15 17 15 13 12 13 13 11 12 12 12 13 12 11 12 12 13 12 12 13 13 13 14 14 12 11 12 10 11 13 11 11 17 21 20 16 13 12 9 9 11 8 7 7 8 11 10 12 15 15 21 25 21 23 24 22 22 16 18 28 26 22 22 17 20 26 25 24 26 30 33 32 37 44
67 48 36 43 54 56 46 34 36 38 30 26 25 22 24 25 23 18 14 14 14 13 13 13 12 12 11 11 11 11 12 12 12 13 12 14 14 12 13 12 10 10 10 12 11 13 19 22 22 19 15 13 9 9 13 11 9 7 7 10 9 10 11 10 21 28 23 22 22 22 23 15 22 45 41 29 29 24 24 30 28 27 30 32 35 35 39 46
76 72 58 53 58 57 45 37 39 38 34 37 35 30 29 28 28 28 23 20 19 17 17 16 15 13 11 12 12 12 13 13 15 13 13 16 15 14 15 11 11 12 10 12 15 14 18 25 24 21 20 19 15 13 14 14 11 8 8 10 9 11 10 10 26 34 24 21 20 19 20 13 23 50 49 36 34 28 24 28 30 34 36 35 37 40 44 48
79 73 62 60 61 56 43 37 44 46 44 48 46 38 33 29 27 27 26 26 25 22 23 22 19 17 15 15 16 15 15 14 16 18 16 16 16 16 18 16 16 15 11 16 19 13 20 29 24 21 23 23 22 20 17 16 14 11 11 11 10 11 9 12 25 29 25 28 26 18 17 16 24 37 36 33 35 32 27 29 32 37 39 40 41 43 47 51
79 67 60 60 56 51 46 43 50 55 52 54 54 44 38 35 29 25 25 27 26 24 26 25 22 23 23 23 24 23 21 17 17 20 20 17 16 19 24 24 22 20 25 34 29 19 28 35 25 23 24 20 20 22 19 17 14 12 12 11 11 11 9 14 21 22 27 33 29 23 22 19 20 24 25 28 32 33 31 31 35 39 41 43 46 47 49 51
84 74 72 77 67 55 51 50 56 61 58 59 58 49 43 40 35 30 26 25 25 25 25 24 25 27 27 28 29 26 24 22 20 21 20 18 18 18 21 23 22 28 39 42 32 26 32 31 23 25 26 18 15 18 18 15 12 11 12 10 10 11 10 14 17 20 30 28 19 29 40 28 18 19 22 26 32 38 40 36 36 40 42 44 46 49 49 49
79 73 71 76 74 68 66 64 65 69 64 60 55 48 44 41 40 40 34 29 26 24 26 29 26 26 27 29 33 33 32 30 27 25 23 21 21 19 18 19 21 31 34 27 28 32 27 20 18 20 21 17 12 13 15 15 12 10 10 10 10 11 12 15 16 19 29 24 15 33 51 37 18 17 18 21 27 33 37 38 37 39 42 44 47 49 48 46
72 73 67 65 70 74 74 71 70 71 65 57 52 48 47 48 47 45 39 37 33 25 26 32 28 26 29 33 38 44 43 38 33 31 29 26 25 23 22 20 20 28 27 21 29 33 23 23 24 16 15 16 12 11 13 14 14 11 10 10 10 10 11 12 13 15 21 21 14 28 48 39 19 14 15 19 25 29 33 38 38 36 40 44 47 48 46 45
75 77 75 77 78 72 70 71 70 68 60 53 51 47 47 51 50 46 42 43 42 32 27 30 31 30 33 35 40 45 43 41 42 42 39 36 33 30 29 27 25 29 30 26 29 30 24 30 32 20 16 18 13 11 13 13 14 13 11 10 9 11 12 12 13 14 20 22 17 24 42 39 22 16 19 27 35 36 36 37 36 37 42 45 46 46 45 45
73 71 75 91 90 72 68 71 68 67 61 53 54 53 50 50 49 48 45 41 41 38 31 31 34 34 33 36 41 42 39 39 41 40 38 39 39 35 34 34 31 36 45 39 30 29 29 31 31 25 22 21 15 13 13 12 13 14 12 12 12 12 12 12 14 16 21 25 26 29 34 30 24 22 24 30 36 36 35 37 38 41 43 44 46 47 47 47
71 66 66 84 91 74 68 70 68 68 60 52 58 62 58 54 49 50 52 44 38 36 32 34 37 34 35 40 43 41 35 32 31 30 30 33 35 34 34 34 30 37 59 63 46 36 34 30 28 27 26 24 18 14 13 14 18 19 15 13 12 13 14 13 14 17 18 19 24 25 21 21 26 28 25 26 29 33 36 37 40 44 46 47 48 47 47 47
Wind_Speed
22 21 21 21 21 21 22 22 23 22 22 23 23 23 24 24 25 25 24 25 25 25 26 26 25 24 24 21 20 19 21 23 20 11 9 17 22 19 17 12 13 18 20 19 21 19 14 10 12 13 9 5 3 3 6 4 3 3 2 2 2 5 6 8 11 9 6 10 13 13 13 11 11 9 5 7 9 12 10 6 7 3 4 10 12 20 25 25
22 22 22 22 22 22 22 23 23 23 23 23 24 24 24 25 25 26 25 26 26 26 26 26 25 24 22 20 18 18 20 22 18 13 13 14 14 15 18 17 16 21 23 23 24 20 14 11 12 13 7 4 3 4 6 5 5 4 1 2 3 4 5 7 10 9 7 12 14 13 13 11 12 11 8 9 11 12 10 8 8 7 10 13 17 23 23 24
24 23 22 22 22 22 23 23 24 24 24 24 24 25 25 25 26 26 26 27 27 27 27 26 25 23 21 17 14 16 17 15 11 9 6 8 11 10 12 21 19 22 24 23 24 21 16 15 16 13 6 3 3 4 5 5 5 4 2 4 3 4 6 6 11 11 8 13 16 13 12 10 11 10 7 9 13 13 11 11 11 10 12 14 18 22 23 24
25 24 23 23 23 23 23 24 24 25 25 25 25 26 25 26 26 27 28 28 28 28 28 27 25 22 18 14 11 13 12 8 5 1 3 7 13 13 4 18 19 20 22 21 21 19 17 17 16 10 4 3 3 4 5 6 5 2 4 6 2 4 7 8 13 13 9 13 16 14 12 11 11 9 8 12 12 10 11 13 14 15 17 17 19 21 23 24
25 25 24 24 24 24 24 25 25 26 26 26 26 26 26 26 26 27 28 29 29 28 28 27 24 20 15 11 9 9 7 4 1 0 4 10 12 10 1 11 17 19 21 20 17 15 15 16 12 6 3 3 5 4 5 8 6 2 6 8 3 5 7 8 13 13 11 13 14 15 14 12 11 9 11 16 12 8 10 13 13 16 18 19 20 21 22 22
26 26 26 24 25 26 26 26 26 26 27 27 27 27 27 27 27 27 28 29 30 29 28 27 22 16 11 8 5 3 3 3 5 10 13 14 13 10 5 6 14 19 21 20 16 13 12 13 11 7 5 4 7 7 5 8 7 4 6 8 6 7 6 7 12 13 14 14 15 15 13 12 12 10 12 17 10 1 6 11 12 14 18 21 21 20 20 20
25 26 26 25 25 27 28 27 27 27 28 28 28 28 28 28 28 28 29 29 29 29 28 25 19 12 7 4 1 0 1 7 15 18 13 10 9 7 7 8 14 21 22 19 16 13 12 14 12 8 7 5 6 9 5 7 8 8 7 6 7 7 7 8 13 13 16 17 16 13 12 15 15 10 11 16 7 2 5 12 13 14 19 22 20 18 18 19
26 26 26 26 26 27 29 28 28 28 28 29 29 29 30 29 29 30 30 29 28 28 26 21 15 8 3 1 0 2 3 10 18 13 5 6 10 8 3 11 18 23 24 21 18 16 14 15 14 8 8 7 6 9 6 5 7 9 10 5 3 5 6 9 12 15 16 13 12 13 14 15 12 8 11 15 7 2 9 14 14 15 18 19 19 18 17 17
26 26 26 26 26 28 29 29 29 29 29 30 30 31 31 30 31 31 30 29 27 26 22 17 11 4 1 0 1 4 5 8 10 5 3 7 11 10 2 10 21 26 24 21 18 16 13 14 14 8 6 7 7 8 7 6 6 9 12 7 4 5 7 11 12 15 14 9 12 15 13 10 8 7 9 11 6 7 12 15 16 17 17 18 17 18 17 17
26 26 26 26 27 28 29 29 30 30 30 31 31 31 31 32 32 32 30 27 26 23 18 12 6 2 3 2 2 4 6 5 5 6 5 6 9 9 4 5 20 26 19 16 16 16 12 9 9 4 2 5 6 6 6 7 4 4 9 5 4 5 7 12 13 14 12 10 16 16 10 8 8 5 6 7 8 11 14 16 17 17 17 17 16 16 16 17
27 26 27 27 28 29 28 30 31 31 32 32 31 31 32 33 33 31 28 26 24 19 13 8 4 4 4 3 4 6 7 7 6 7 7 8 10 10 6 5 19 25 17 14 15 16 12 5 6 2 0 4 6 5 4 5 2 3 6 2 1 4 7 11 13 14 11 9 13 12 9 7 7 6 6 8 12 14 15 16 18 17 16 16 16 15 14 16
28 27 27 28 29 29 29 30 32 33 34 33 32 32 32 33 32 30 27 24 19 13 7 4 4 7 3 3 8 12 13 13 11 12 14 14 15 11 6 5 19 25 19 13 12 15 12 7 10 6 1 4 6 4 2 3 2 5 7 4 4 6 7 10 11 14 12 9 11 12 7 6 9 8 5 11 13 13 15 16 17 17 15 15 15 13 13 16
29 28 28 29 30 30 30 31 33 35 35 34 34 33 33 33 30 28 25 19 13 8 3 3 7 7 1 3 9 15 17 16 16 18 19 17 13 7 4 7 18 21 19 15 12 17 15 8 9 5 1 3 3 3 2 3 4 7 7 4 6 5 6 8 8 13 11 9 16 14 5 9 14 9 7 13 14 15 14 14 15 14 13 13 13 12 13 16
30 29 29 31 30 30 31 32 35 37 37 36 35 34 34 31 28 25 18 12 7 2 3 6 7 6 2 6 12 16 15 13 15 13 12 9 6 6 7 12 18 16 15 16 14 18 17 7 4 1 1 3 1 2 3 4 3 7 6 4 5 4 7 7 7 14 10 7 16 15 8 8 12 11 10 13 16 17 15 15 15 14 13 13 12 13 13 15
30 30 30 32 31 31 33 34 37 38 38 37 36 34 32 29 24 17 9 5 2 4 7 6 6 4 2 10 12 11 8 8 8 5 3 1 8 8 9 16 19 15 12 13 10 11 14 8 3 3 2 1 1 2 4 4 3 5 4 4 5 4 7 7 6 13 11 7 14 14 8 6 7 11 13 13 15 17 15 15 16 15 15 13 12 13 12 13
30 31 31 32 32 33 35 36 38 39 38 38 36 32 28 24 15 7 4 1 3 7 7 3 4 2 4 6 5 5 5 4 3 2 3 2 3 7 13 15 14 14 10 8 5 5 8 8 3 3 2 3 4 5 5 4 4 4 3 4 7 6 6 7 7 11 10 11 13 13 8 4 3 10 14 15 16 17 14 15 16 15 16 14 12 12 11 12
30 31 32 32 32 34 36 37 39 39 39 38 34 28 22 14 5 2 2 3 4 5 6 3 2 2 5 6 5 6 4 2 2 4 8 8 4 10 15 10 6 8 5 3 3 3 5 6 3 2 2 3 4 7 6 6 6 4 3 3 6 8 8 8 8 9 11 13 14 14 10 5 3 8 14 16 17 17 14 15 16 15 14 14 12 12 12 12
31 31 31 31 32 34 36 39 39 38 39 34 28 24 15 6 1 2 2 4 4 3 4 2 2 2 4 4 3 3 2 4 10 14 13 6 6 15 12 7 6 9 6 3 4 5 4 3 3 4 5 4 5 9 8 7 8 8 7 5 4 7 9 9 8 9 14 14 14 14 14 12 4 7 11 14 16 16 14 14 15 15 15 14 13 12 13 13
32 32 31 31 33 35 38 39 38 39 36 26 24 20 7 1 1 2 2 2 1 2 2 1 3 3 6 5 5 6 8 10 13 13 7 3 10 12 6 7 10 9 7 4 5 7 5 2 4 6 8 8 9 12 10 8 11 12 10 9 9 8 7 8 6 8 15 13 13 15 14 13 5 6 10 12 14 15 13 13 12 13 14 13 13 12 13 14
33 33 31 32 34 37 40 38 39 39 27 21 27 16 2 2 2 1 1 3 5 6 7 5 6 7 11 10 7 8 11 9 7 6 5 7 11 11 4 4 7 5 6 6 6 5 5 6 8 8 10 11 12 12 10 8 11 11 8 8 11 9 6 8 7 8 14 10 11 12 9 8 4 5 10 11 12 14 14 14 13 13 13 12 13 14 14 15
34 33 32 35 37 40 39 36 41 33 15 19 26 9 0 4 2 3 5 7 9 9 13 13 11 14 16 12 8 4 5 5 6 5 8 9 11 10 4 3 6 5 4 5 4 4 5 9 9 9 11 13 13 12 8 8 11 11 8 7 9 7 5 7 7 9 13 10 8 6 7 8 4 4 8 11 13 15 16 16 15 15 14 12 14 15 15 14
33 32 34 37 40 42 38 37 39 22 8 20 19 3 1 4 3 3 4 8 10 10 14 15 12 16 19 17 15 6 3 7 8 8 10 10 6 6 4 5 7 6 4 4 4 5 7 9 9 7 8 10 9 9 8 9 12 11 8 6 6 5 5 6 6 9 11 9 6 5 8 9 4 4 9 12 14 14 14 16 14 15 14 13 14 15 15 13
32 33 35 38 43 42 38 39 30 10 12 23 13 0 1 5 8 4 3 6 10 7 10 12 10 12 13 12 12 11 10 10 9 8 12 13 6 5 7 7 7 6 6 8 7 8 7 6 7 6 5 9 7 6 9 9 9 8 7 8 6 7 7 5 6 9 9 4 2 5 7 7 4 6 9 13 15 12 12 14 13 13 15 15 15 14 14 15
33 34 35 40 44 41 39 35 15 6 23 25 5 3 3 7 14 7 3 4 8 6 6 9 7 8 9 5 7 13 10 8 7 6 11 15 7 5 8 7 7 6 6 9 7 7 6 1 5 8 7 11 10 8 10 8 7 8 10 11 8 11 12 6 7 8 7 2 2 5 5 7 7 9 10 10 13 13 12 14 14 14 15 14 14 15 15 16
35 36 39 42 41 42 41 24 6 15 30 17 4 5 3 11 17 7 3 3 5 5 3 5 3 5 7 3 7 10 6 6 9 7 8 13 10 7 6 4 5 7 7 8 6 7 6 1 6 11 9 11 10 9 12 10 7 6 10 11 10 15 12 7 12 9 5 5 6 7 6 7 7 10 12 9 11 15 13 14 17 16 15 14 13 14 15 15
37 38 41 41 40 44 34 11 8 26 25 5 5 1 6 16 18 4 3 2 4 4 1 2 3 4 4 5 6 6 5 4 8 8 7 10 11 7 5 4 1 5 7 6 4 4 4 3 6 10 11 11 10 9 11 12 9 6 7 8 9 13 12 11 14 10 6 5 7 12 10 7 4 8 12 11 11 15 14 16 19 16 15 15 14 14 14 15
39 40 41 40 40 38 21 7 18 24 9 2 2 7 12 18 13 2 3 2 3 2 1 1 1 3 4 5 8 6 2 1 1 9 11 12 10 4 5 7 2 2 5 4 4 3 4 7 6 7 11 12 10 9 10 11 10 5 6 11 11 11 14 15 14 11 6 1 4 11 9 6 6 6 7 11 11 12 15 18 19 18 17 17 17 17 16 16
41 41 40 40 40 32 14 12 18 11 4 5 9 12 16 16 6 3 2 2 1 0 1 1 0 3 1 3 9 5 3 1 0 4 10 12 8 3 7 11 8 7 7 6 6 2 4 9 9 9 9 9 8 6 8 11 8 2 6 11 11 11 14 15 13 9 5 3 4 8 6 4 8 3 4 9 12 12 16 19 20 20 20 19 19 19 18 17
42 41 39 41 41 30 12 10 12 9 10 12 10 14 17 10 2 3 1 1 1 1 1 2 1 2 2 3 8 7 4 2 1 1 5 8 6 2 5 8 10 11 9 8 9 2 2 7 10 12 9 8 6 3 9 14 7 3 7 8 6 5 8 9 9 6 4 5 7 9 10 6 7 4 5 6 9 13 16 17 19 20 20 20 19 20 19 16
44 41 39 40 36 23 11 12 17 13 10 8 10 16 14 3 3 2 2 2 2 1 1 1 1 1 2 3 5 6 6 5 1 3 5 5 5 2 1 3 6 9 6 6 9 5 1 1 4 8 7 7 7 4 8 12 7 9 10 8 7 5 4 3 1 3 4 6 8 10 15 11 7 5 7 7 9 13 14 12 14 17 18 20 18 18 18 16
45 42 40 38 30 17 7 10 13 6 2 5 12 14 7 1 2 3 4 2 3 1 1 1 1 0 0 1 3 3 6 6 2 6 5 5 5 3 4 4 3 6 6 6 6 4 4 4 3 4 4 6 8 6 6 6 8 10 8 8 7 4 3 3 2 2 5 6 6 8 14 13 10 6 6 9 11 11 12 13 14 18 20 20 18 17 18 17
45 44 39 35 27 15 11 12 10 4 2 7 11 7 2 2 3 5 2 1 2 1 1 1 1 2 3 3 3 2 3 4 5 7 8 8 7 7 9 7 6 7 6 7 6 3 7 7 2 2 3 8 10 7 5 4 7 8 7 9 8 4 4 4 3 4 6 5 1 3 10 10 9 9 6 8 12 13 13 14 13 15 18 18 18 18 16 15
45 44 38 32 25 19 19 19 17 14 13 11 6 1 2 4 5 6 5 3 1 2 1 1 1 3 4 5 3 2 2 2 5 7 8 8 8 9 8 7 11 10 4 7 8 5 6 5 4 6 4 7 12 10 7 6 7 9 9 10 8 6 6 7 4 2 4 5 1 4 8 6 5 9 10 13 17 16 14 14 11 9 12 15 17 16 15 15
45 41 37 31 22 16 14 14 14 13 11 7 2 2 4 6 3 6 8 7 2 3 1 0 4 5 3 3 3 1 2 2 4 6 7 7 8 9 6 5 10 8 3 5 7 7 9 6 8 10 4 7 13 11 7 8 9 10 7 8 8 6 6 6 5 4 4 3 2 5 6 6 4 2 5 11 13 11 10 12 10 9 8 11 13 15 16 17
43 38 34 25 14 9 6 7 8 7 6 5 3 4 8 7 2 3 6 6 3 4 4 2 4 7 4 2 2 1 2 2 2 4 7 8 8 9 8 7 9 8 5 6 4 5 10 7 5 6 3 8 12 7 6 9 9 7 4 6 9 7 6 3 2 3 3 2 3 5 4 4 3 5 7 7 8 8 9 10 11 12 10 10 12 15 17 17
43 37 27 17 11 9 8 7 6 10 8 4 5 7 7 4 2 3 3 3 2 2 4 2 1 4 4 2 1 0 2 1 1 2 5 6 7 9 9 8 10 12 9 7 3 3 7 5 3 3 3 8 10 8 9 9 7 4 5 7 4 3 6 4 1 1 2 4 4 5 4 3 1 8 9 7 8 10 9 8 11 12 11 12 12 14 16 16
38 30 17 13 14 12 9 5 9 13 6 4 7 7 5 3 3 3 1 1 1 1 1 2 2 3 3 2 2 1 3 2 1 2 3 4 4 7 9 6 10 14 13 10 5 2 5 5 5 8 9 8 7 8 11 10 6 5 7 8 4 2 2 2 3 3 4 8 4 4 7 5 3 4 3 2 7 11 11 9 9 9 12 14 14 14 16 17
27 18 10 10 12 10 5 4 12 10 4 5 9 7 5 6 4 4 3 0 1 0 0 2 2 1 2 2 2 1 4 4 1 2 2 4 3 6 10 7 9 14 16 14 7 3 5 6 5 9 13 9 5 6 10 10 6 1 4 9 6 4 5 2 4 5 6 8 4 4 7 6 6 5 3 4 7 9 10 7 8 10 13 14 15 15 16 16
17 8 4 3 8 9 5 9 10 5 3 6 9 7 5 6 5 4 4 2 2 2 3 4 3 2 3 2 2 2 3 4 3 3 2 4 2 4 8 6 8 14 16 15 9 4 5 7 4 5 7 7 7 8 10 10 6 1 3 8 4 4 5 4 3 4 6 7 4 5 6 4 6 6 6 10 10 9 10 6 8 12 14 14 14 14 14 14
8 3 2 3 8 12 11 8 4 3 5 5 6 5 3 5 7 6 5 4 4 4 4 5 6 5 4 2 3 3 2 3 4 3 2 3 2 3 6 5 6 10 13 15 10 6 5 6 5 3 2 5 7 8 12 13 9 5 7 8 5 2 2 3 3 2 4 6 5 6 7 4 4 5 8 12 11 10 11 9 8 10 13 14 13 12 13 13
5 2 1 4 7 8 6 2 3 3 4 3 3 4 3 3 5 5 5 6 6 5 3 4 6 5 4 3 3 2 2 4 5 5 4 4 4 3 5 7 6 7 8 9 9 7 5 4 6 4 4 7 9 8 11 15 12 10 9 8 9 7 4 6 7 3 3 5 4 5 8 5 6 6 8 10 11 12 12 9 8 9 10 11 10 12 13 13
3 2 3 1 3 4 3 3 4 2 4 4 3 4 5 5 5 5 4 5 6 6 4 4 6 6 5 6 6 4 4 6 6 6 6 6 8 6 3 3 5 7 7 6 9 9 4 3 6 8 7 10 10 7 5 9 11 12 11 10 11 10 9 10 9 4 4 3 1 2 6 5 5 6 8 9 10 10 8 6 8 9 7 8 9 12 13 13
2 6 10 9 6 5 3 3 3 3 5 5 5 6 5 4 4 4 3 4 5 5 4 5 7 7 7 8 8 7 7 7 8 9 8 7 9 9 6 2 5 6 5 5 8 8 4 2 5 7 6 7 7 5 2 2 7 11 12 12 12 12 13 12 6 4 5 6 4 3 6 5 3 2 4 6 7 7 6 6 9 9 5 6 10 11 12 12
4 6 8 8 3 5 4 3 2 3 4 4 6 7 6 5 5 6 6 5 4 4 4 5 6 7 7 7 8 9 7 6 8 10 9 6 5 6 7 4 3 4 5 4 5 6 4 3 5 6 6 6 7 8 6 4 6 8 8 11 13 15 15 8 2 3 6 9 11 8 7 5 3 1 2 4 6 9 10 9 8 8 6 5 8 9 10 10
5 4 4 5 3 4 3 2 2 2 4 5 5 7 7 6 6 9 10 8 6 5 4 4 4 5 5 5 6 8 9 8 7 6 6 6 4 3 3 3 4 5 7 8 6 6 5 5 7 8 9 9 9 10 8 5 5 5 6 9 13 17 18 9 3 4 7 8 11 10 7 4 3 1 2 4 5 10 13 10 7 7 8 6 6 8 9 9
4 3 3 3 2 3 3 1 3 4 4 5 5 5 5 6 5 7 10 9 9 9 6 5 5 4 6 8 8 9 11 11 9 6 5 6 4 2 0 1 4 6 9 11 9 7 2 3 9 11 11 11 10 9 6 5 6 8 9 12 12 15 17 11 5 7 5 4 6 9 7 6 7 6 5 6 8 10 11 9 7 8 9 8 7 7 8 8
2 3 2 4 3 2 1 1 4 5 5 5 4 3 5 7 5 4 6 7 6 7 7 6 7 8 7 7 7 8 9 11 12 10 9 8 7 6 6 6 6 6 7 8 8 7 2 5 13 15 14 14 15 14 10 10 12 13 13 15 15 15 17 15 13 10 7 5 9 9 7 9 11 9 9 10 9 8 9 9 8 8 7 6 6 6 8 9
2 3 3 5 4 3 2 4 6 8 7 6 4 5 7 9 7 4 4 4 3 5 6 6 9 12 8 2 2 4 4 5 9 9 8 9 8 8 9 9 6 4 5 6 3 5 3 7 12 16 17 18 21 19 13 12 13 14 15 17 17 17 18 18 17 12 9 8 12 7 8 10 11 10 11 12 11 11 11 9 6 4 5 6 7 9 11 12
3 3 3 5 4 5 7 8 9 9 8 6 4 6 8 9 7 5 3 5 5 4 6 7 8 7 2 1 0 2 3 4 6 6 5 7 8 7 8 8 5 2 3 5 1 2 2 5 6 11 16 18 21 20 14 13 13 13 15 17 17 18 20 20 19 17 14 15 15 9 10 12 12 12 13 11 10 10 6 3 4 5 8 9 10 11 12 13
3 2 3 4 4 6 8 8 7 7 6 6 5 5 5 5 5 7 6 5 5 2 3 5 3 2 3 2 2 5 6 3 4 4 3 5 5 5 5 4 2 1 3 4 3 1 2 3 1 5 9 13 17 17 14 15 16 16 17 16 16 16 17 18 17 14 13 15 13 10 10 10 10 11 10 5 3 3 3 4 8 9 9 10 11 12 13 14
4 4 4 4 5 6 6 5 5 5 5 5 4 2 4 3 5 10 8 7 9 8 4 3 6 7 4 3 5 6 5 3 6 9 8 7 6 4 2 2 2 3 2 3 4 2 2 2 0 2 5 8 10 14 15 15 15 17 19 17 15 14 13 13 11 9 10 12 9 6 7 8 7 8 7 4 2 5 9 10 9 8 9 11 13 13 13 14
5 5 4 4 5 5 5 5 4 4 4 3 2 4 5 6 7 9 7 4 6 8 4 7 9 8 6 5 4 4 5 7 11 12 11 10 11 9 8 7 6 4 0 2 4 4 2 2 2 1 5 7 7 10 12 11 10 12 14 15 15 13 11 11 10 10 13 13 9 7 8 8 5 4 6 8 8 9 10 9 7 7 8 11 12 13 13 14
Wind_Direction
355 353 353 354 355 354 353 352 351 350 351 350 349 348 348 346 344 343 343 341 339 338 335 333 333 332 329 328 328 326 322 319 315 303 263 286 295 276 258 234 201 179 167 166 157 144 138 140 140 152 156 160 187 158 160 168 184 190 208 224 196 189 190 185 184 175 155 161 166 165 173 164 153 162 136 130 135 141 153 145 140 113 108 133 128 138 148 154
353 352 352 352 352 351 351 350 349 349 348 348 347 346 345 345 342 341 340 338 337 335 333 331 331 330 326 325 326 326 324 318 309 282 277 307 318 279 240 218 207 189 175 167 163 152 147 154 150 158 162 164 182 159 161 172 192 198 187 222 230 198 180 188 188 174 162 165 164 166 173 168 157 154 155 154 148 155 157 145 144 124 121 127 133 143 150 157
350 350 350 351 350 349 348 349 348 348 347 346 345 344 343 342 341 339 337 336 334 332 331 329 330 329 323 324 327 329 327 318 302 279 301 15 7 325 222 206 207 196 191 187 178 168 159 155 154 158 167 185 175 170 177 172 190 205 215 239 245 195 176 183 189 184 174 159 158 165 168 166 156 152 170 163 155 170 171 160 162 154 147 144 145 150 155 161
349 348 347 349 349 348 348 348 347 346 345 345 344 343 341 340 340 338 335 333 331 330 328 327 329 327 320 324 328 332 330 304 284 251 39 21 2 4 172 198 207 201 199 199 192 182 164 151 156 162 167 192 172 178 187 173 184 179 203 239 238 175 191 188 188 185 169 161 160 160 160 162 157 158 169 156 157 187 193 182 175 164 157 153 153 157 161 165
348 346 346 347 348 348 348 347 346 346 345 344 343 341 339 339 338 336 334 330 329 328 326 326 328 326 320 321 329 338 329 300 295 182 354 346 333 343 39 189 202 203 197 195 188 173 156 145 155 171 184 189 168 180 197 185 189 184 216 244 232 174 200 187 181 175 158 158 156 158 165 159 155 167 171 166 170 193 198 193 178 163 157 157 159 160 165 169
347 346 345 345 347 348 347 346 345 345 345 344 342 340 338 337 336 334 331 329 327 325 325 325 327 324 314 317 339 348 307 287 299 293 311 327 319 310 290 200 198 200 194 185 168 155 150 149 163 179 196 197 182 189 192 181 190 224 230 246 232 198 207 178 171 167 150 157 166 168 163 146 157 176 178 181 187 217 187 180 168 162 157 155 160 163 169 173
347 346 344 345 346 345 345 343 343 345 344 343 341 339 337 335 334 332 330 327 325 323 323 323 325 320 307 328 28 44 238 254 281 292 305 331 340 318 258 220 198 191 187 176 160 162 160 163 179 178 181 190 190 198 193 172 189 226 234 241 233 213 211 176 166 165 158 167 171 161 151 156 174 174 175 190 200 354 162 161 154 156 156 155 161 169 173 176
347 345 342 343 343 342 342 341 342 344 343 342 339 337 335 334 333 331 328 325 322 321 320 320 322 315 296 3 294 278 218 255 281 288 296 349 7 1 241 200 196 187 184 184 173 171 165 169 180 169 184 193 178 188 183 171 189 221 231 233 222 209 204 177 166 167 165 167 155 151 163 172 175 150 171 194 189 143 151 148 149 153 157 160 165 171 175 179
345 343 341 340 341 340 339 340 342 343 343 340 338 336 334 333 332 330 326 323 320 319 317 317 315 301 219 138 261 282 253 256 278 253 258 340 4 10 37 187 193 185 186 193 180 172 172 177 182 175 194 187 170 181 179 197 205 213 223 222 206 201 184 173 170 168 164 153 150 160 172 166 143 129 177 197 167 143 147 145 151 157 163 167 169 173 176 180
343 343 341 339 339 338 337 338 340 342 342 339 336 334 333 333 330 327 324 321 319 317 315 311 298 212 188 196 200 269 280 271 254 230 272 336 358 357 346 205 190 185 186 189 181 178 181 184 180 174 198 174 174 178 171 197 203 187 207 220 222 199 169 173 169 166 159 152 165 167 164 151 141 165 201 188 158 149 148 150 156 162 168 171 173 175 178 183
343 342 341 339 339 338 337 337 339 342 341 338 335 334 332 331 328 325 323 319 317 315 311 298 258 179 180 206 219 254 276 279 262 251 279 311 324 323 307 225 186 186 183 183 190 182 179 177 162 145 286 168 168 178 183 191 136 136 166 104 186 164 156 174 166 163 154 151 171 153 133 141 157 212 217 161 157 158 155 157 162 167 171 173 176 176 181 189
342 342 341 339 338 338 336 336 339 341 340 337 334 333 332 329 325 322 320 317 316 312 302 267 192 158 165 226 227 253 273 275 276 277 282 291 300 301 288 217 184 185 181 180 192 185 182 171 169 186 224 156 153 174 212 179 139 162 167 121 130 144 152 172 166 168 161 153 159 134 122 180 193 212 175 147 158 161 161 162 166 171 171 173 177 178 186 192
342 341 341 338 338 338 336 336 339 341 339 336 334 332 330 327 322 319 317 315 314 307 283 170 156 148 150 243 237 270 282 274 275 278 279 283 282 265 233 192 179 183 187 185 181 184 188 166 170 194 204 185 162 154 122 126 149 158 166 155 142 147 169 174 170 172 161 148 156 152 185 215 203 199 143 151 161 159 165 167 170 174 174 176 177 182 190 193
342 342 341 339 337 336 336 337 340 341 339 335 332 331 329 325 319 317 316 312 310 290 150 136 145 142 164 261 273 290 288 270 270 274 281 276 232 186 177 174 172 175 187 192 184 190 198 177 157 211 212 229 198 137 115 108 153 147 147 165 162 173 173 161 171 174 160 151 167 175 227 225 193 182 156 162 165 163 171 173 174 176 177 180 179 185 191 194
342 342 340 339 337 337 337 338 341 341 338 334 331 330 327 322 318 317 315 313 312 139 123 117 142 143 279 279 287 294 275 261 261 260 312 235 160 160 176 176 176 179 186 193 187 193 200 181 174 225 207 203 214 185 139 119 154 156 158 176 191 196 158 150 182 185 168 158 180 188 226 242 187 172 164 169 172 172 176 175 178 180 180 184 183 188 191 192
342 341 340 339 338 339 339 340 342 341 337 333 329 329 326 321 320 322 320 348 135 132 113 103 155 164 290 287 295 287 257 255 252 239 349 353 178 177 171 169 178 189 200 215 200 175 178 173 184 226 200 175 194 185 150 150 168 189 215 182 186 189 160 158 182 198 174 150 183 201 224 258 172 168 167 170 179 179 179 179 182 184 183 186 186 190 191 190
341 340 340 339 338 338 339 341 341 340 336 333 331 329 325 321 325 8 36 96 106 123 122 105 126 183 265 269 279 282 263 242 280 307 318 317 251 175 155 152 169 173 182 218 196 168 167 177 179 175 197 194 182 175 174 188 178 188 219 184 193 185 165 161 166 197 181 160 184 204 226 244 121 157 172 173 180 182 184 183 183 187 188 189 189 191 193 193
341 339 339 339 337 337 339 340 340 340 337 334 336 333 326 321 359 58 77 84 68 119 137 108 130 212 247 239 261 302 325 290 302 306 307 318 178 171 150 131 136 137 143 144 160 187 187 183 193 179 186 183 174 186 195 192 177 182 189 185 201 188 178 174 162 179 183 183 190 192 219 231 158 144 178 180 182 186 190 187 186 189 189 190 191 193 195 198
340 339 340 338 337 338 339 339 339 340 337 338 346 339 331 354 346 99 105 72 72 211 222 165 185 261 285 269 276 298 304 295 296 293 279 127 151 171 152 118 126 132 156 164 162 187 185 163 198 195 189 185 182 194 203 188 178 186 191 190 188 183 185 172 139 159 177 192 201 195 216 226 189 155 181 186 188 193 194 191 192 192 192 193 193 197 198 202
339 339 339 337 339 339 339 339 339 339 338 347 352 344 339 12 321 131 338 257 226 248 273 247 214 263 279 278 287 299 302 285 267 255 194 147 140 154 159 114 120 135 166 170 164 172 183 192 202 197 186 180 181 195 205 189 181 184 191 203 195 182 170 152 124 149 171 191 214 211 232 239 215 178 187 190 192 200 201 196 197 196 195 195 195 198 200 206
338 338 338 339 340 339 339 339 338 337 338 352 354 351 87 8 355 342 324 276 245 233 251 247 227 246 259 262 271 310 329 278 247 235 190 158 139 150 193 147 144 170 173 158 139 135 192 210 207 194 183 178 182 193 194 180 180 184 189 205 204 189 161 146 137 149 167 192 214 212 247 249 241 204 193 191 198 207 205 201 201 199 197 198 200 201 202 206
338 338 338 339 340 339 339 338 338 336 337 349 356 21 64 21 18 312 299 293 270 219 233 245 233 249 259 258 256 249 263 258 261 249 198 173 163 174 184 164 170 175 153 152 145 157 204 218 200 185 188 185 183 186 183 181 184 187 188 194 203 182 125 119 138 146 162 199 210 188 233 242 235 221 207 200 207 214 211 207 206 201 201 202 202 203 205 203
337 338 338 340 340 338 338 338 338 341 344 343 344 122 52 22 4 323 219 290 284 225 223 237 231 246 257 262 240 205 213 232 249 249 192 179 192 179 165 168 180 163 157 185 189 183 201 218 190 169 182 185 177 180 181 184 192 188 180 191 194 170 165 164 155 151 156 190 202 169 230 248 215 220 220 211 213 218 217 214 212 207 207 207 205 204 203 202
337 338 339 340 340 338 338 339 339 341 340 339 314 160 90 358 353 349 208 269 283 262 226 219 221 234 248 271 187 184 205 211 219 236 182 173 161 153 170 161 165 173 177 188 197 204 205 199 159 158 175 187 179 178 181 183 198 192 191 200 181 171 194 185 130 136 142 132 134 158 243 258 210 213 223 211 211 219 219 215 216 217 217 214 210 210 207 205
337 339 339 340 340 338 337 339 343 333 335 338 180 147 56 338 342 341 228 275 276 275 238 202 213 225 225 190 158 177 198 211 223 221 178 177 156 140 169 149 169 190 177 173 187 221 224 110 149 164 179 192 181 180 188 187 190 201 208 210 179 173 187 148 129 142 163 209 201 180 246 262 198 211 223 199 198 214 216 215 219 219 218 216 214 214 212 211
338 339 340 341 340 338 341 345 328 329 330 327 168 217 320 326 334 317 209 306 271 264 243 174 196 201 188 156 154 164 171 218 230 205 195 192 162 141 161 151 204 193 164 160 179 233 220 153 164 173 174 186 190 191 193 188 189 202 202 193 171 167 167 152 158 174 200 225 194 184 225 257 205 214 217 197 198 210 211 216 221 219 216 214 213 215 212 211
339 339 340 340 339 340 344 313 315 325 322 209 284 308 311 320 329 247 200 308 269 241 118 196 212 193 188 166 165 166 177 295 205 187 199 199 175 163 186 169 156 163 141 149 197 215 172 159 176 184 178 186 195 194 191 193 197 189 157 161 161 162 164 163 173 192 204 187 155 185 216 263 258 241 196 191 205 213 215 219 221 219 218 215 214 216 212 209
339 338 338 338 336 334 322 289 306 313 263 293 308 306 315 322 319 192 235 311 258 67 123 198 167 179 163 155 181 207 308 315 287 192 192 196 192 193 196 181 165 157 151 178 204 180 158 182 184 181 189 195 194 185 176 185 199 182 141 157 160 165 169 169 181 196 190 171 192 196 195 243 251 254 125 185 209 221 223 222 220 218 216 214 213 214 213 210
337 336 337 336 332 329 322 272 274 284 293 305 309 315 324 326 235 183 277 268 238 19 118 170 158 164 94 137 203 244 297 259 306 39 164 191 217 227 195 176 160 160 164 194 213 193 168 202 188 181 194 200 192 164 169 185 197 125 128 129 115 137 159 170 190 183 154 201 219 195 184 214 249 219 146 180 212 226 227 223 220 217 214 213 213 213 213 210
336 334 335 335 329 326 326 271 268 291 307 307 325 329 327 312 174 194 202 217 297 338 169 190 172 173 126 153 218 238 239 256 326 116 147 182 214 237 117 121 146 162 164 204 218 214 232 220 174 189 199 188 186 176 181 190 165 122 126 117 88 81 116 126 164 143 155 213 227 199 189 207 254 221 169 186 211 216 220 223 220 214 213 213 211 211 211 208
334 332 333 331 321 311 303 273 279 313 360 331 339 333 314 184 174 219 195 213 302 235 187 227 160 171 197 208 278 236 216 249 217 151 159 180 191 169 135 128 141 167 173 197 205 214 239 221 171 204 201 168 179 190 194 188 155 140 136 136 124 97 118 111 87 174 203 219 226 204 192 205 242 240 181 203 222 217 216 224 216 207 209 210 209 208 208 207
332 331 330 326 316 291 254 261 277 272 265 320 333 322 224 179 230 222 201 303 271 187 127 149 139 324 306 271 254 219 205 230 205 176 170 179 187 178 179 178 167 178 194 192 182 190 224 222 207 229 197 176 184 186 179 175 178 178 156 152 163 156 164 177 176 194 216 227 241 170 184 203 241 255 241 228 239 235 226 230 225 212 208 205 206 205 202 203
331 331 329 325 317 290 269 274 270 257 272 293 308 301 186 222 226 189 193 233 221 59 68 166 264 292 289 295 277 233 234 212 198 192 176 177 187 187 195 186 175 186 195 181 185 187 202 229 230 215 199 186 193 192 183 171 185 196 174 170 187 177 178 191 174 179 219 227 232 145 181 208 245 256 249 239 246 243 231 235 236 224 211 203 205 204 199 205
331 333 330 324 319 302 291 287 267 254 265 265 216 166 196 221 223 178 201 225 258 340 343 44 321 306 281 292 308 293 253 221 181 185 179 174 188 193 199 198 187 187 149 166 192 195 201 219 207 200 183 176 198 208 190 156 175 199 184 187 203 186 193 200 176 193 200 183 136 143 178 209 194 243 244 234 255 263 243 237 227 220 216 200 200 204 204 209
331 335 332 327 329 330 329 300 264 221 196 187 168 195 207 209 202 177 207 227 254 293 303 3 334 309 297 268 304 318 241 248 122 183 190 179 191 194 187 192 194 185 160 178 190 186 211 228 194 193 177 171 193 203 160 151 179 196 170 199 212 184 180 197 190 198 172 147 167 167 210 230 217 307 289 249 271 276 251 236 217 214 208 188 192 201 204 207
334 338 336 331 339 335 323 299 232 184 178 186 188 210 218 210 190 183 198 204 194 259 300 310 237 258 270 232 204 309 257 285 74 216 211 190 201 195 185 187 186 186 184 187 181 158 205 225 162 168 195 185 189 176 171 189 188 163 181 205 206 158 171 178 175 88 135 222 199 171 229 248 249 284 275 250 260 260 250 234 219 212 192 184 195 199 201 202
334 337 329 322 335 332 318 285 193 178 180 198 204 216 219 212 215 214 207 141 158 148 275 259 217 220 243 227 191 22 330 327 103 253 224 192 212 192 188 193 182 190 194 190 203 189 201 214 168 183 206 202 192 180 193 207 179 156 199 182 107 52 195 180 202 169 190 230 214 167 219 227 201 247 272 251 249 251 248 229 212 201 186 194 204 199 197 198
326 321 301 307 339 348 337 190 173 172 178 205 222 232 210 206 218 221 235 252 162 85 182 217 227 231 224 215 187 33 338 328 336 313 240 200 225 186 184 188 180 193 196 194 209 203 197 220 191 194 205 187 159 190 208 209 193 226 199 161 144 201 190 169 214 192 198 229 222 180 214 228 214 213 245 256 252 257 255 223 187 195 198 203 210 203 197 194
317 307 292 343 19 32 79 144 156 174 203 200 219 229 206 213 225 223 239 238 180 214 247 228 220 242 234 228 260 278 315 304 291 310 258 205 225 186 184 192 190 196 194 191 196 162 179 224 212 191 200 173 160 197 215 206 192 313 172 168 186 219 184 182 197 182 204 225 224 205 210 213 211 202 213 239 250 256 256 234 195 203 205 206 209 202 191 190
323 301 295 43 64 72 94 127 144 208 221 209 218 224 200 215 229 230 222 210 205 220 234 218 207 228 243 254 275 264 257 258 253 274 253 210 235 212 200 203 194 194 191 191 193 169 169 218 218 166 146 181 188 199 215 210 193 186 194 187 183 168 160 200 195 164 210 219 213 225 230 204 186 194 206 224 238 240 243 244 223 213 211 210 206 195 186 188
321 295 255 95 86 70 72 184 206 201 231 249 233 227 237 234 240 250 228 209 219 234 235 223 216 225 245 246 245 234 244 261 250 253 259 240 242 231 208 208 191 165 167 186 201 195 177 195 210 191 171 204 211 199 211 221 210 195 200 193 186 180 165 199 213 183 191 221 202 223 246 221 169 186 204 216 231 236 237 241 240 234 221 209 203 196 191 188
299 287 282 296 290 313 327 244 215 201 232 249 266 255 262 264 252 255 240 205 212 226 223 226 225 225 237 242 242 236 249 264 253 246 252 243 238 244 235 194 168 152 153 186 203 198 172 166 206 214 212 216 214 188 198 234 221 204 204 200 197 196 190 206 220 179 167 218 144 200 258 237 169 185 204 213 229 240 245 244 251 254 231 204 202 200 196 193
287 290 295 305 284 246 240 237 228 225 227 248 284 276 266 269 256 249 240 207 207 211 204 209 215 217 221 226 231 227 225 243 244 236 243 245 239 243 242 173 140 164 181 196 194 182 150 151 204 219 230 230 221 192 144 240 217 211 212 203 200 206 208 214 213 166 185 198 163 200 245 217 169 179 212 233 249 258 260 241 242 254 243 204 203 198 194 195
301 284 289 315 301 198 220 269 256 245 255 280 286 274 268 267 260 254 247 231 214 205 208 211 208 216 221 215 222 224 211 223 236 228 232 239 233 249 254 225 183 198 207 204 183 172 174 185 198 212 224 226 221 212 205 198 202 215 217 206 205 209 210 209 144 158 213 195 183 215 235 197 174 133 195 245 260 260 257 243 237 252 253 219 206 197 191 188
306 270 256 294 268 201 239 309 355 323 314 319 298 278 268 257 249 250 250 249 242 230 231 232 215 223 232 224 233 236 223 228 240 225 220 231 241 272 278 226 211 220 230 231 201 176 187 190 188 204 217 217 215 216 213 197 192 214 218 208 209 212 209 198 135 197 217 185 186 218 227 183 176 222 217 233 248 253 253 246 240 250 249 231 209 197 189 183
318 294 275 298 263 223 248 299 20 356 339 335 310 279 265 258 257 254 248 245 240 235 238 246 244 252 249 245 251 248 234 234 239 237 238 245 249 258 261 247 251 247 250 245 215 186 184 191 190 203 216 219 220 218 199 176 191 206 209 206 207 213 211 200 193 213 195 147 197 217 213 202 201 202 217 228 230 241 249 243 235 242 242 229 212 201 189 184
287 281 307 341 318 289 276 56 23 355 332 325 312 301 293 281 286 273 238 232 232 228 227 229 233 239 235 229 240 246 241 237 237 244 255 259 267 280 287 297 286 270 285 278 227 194 193 209 199 203 213 217 223 219 194 189 208 209 207 207 200 201 205 204 214 210 150 156 221 206 187 216 214 198 209 221 220 232 245 236 227 233 233 217 204 197 188 187
277 280 340 351 311 285 309 325 339 330 311 305 293 285 289 286 293 295 258 273 282 226 211 211 218 226 231 214 228 248 247 243 242 244 248 249 257 273 278 279 265 257 333 332 245 189 218 227 204 204 212 215 223 223 200 192 212 211 210 212 200 195 200 206 219 211 166 201 232 197 168 212 217 207 213 217 213 217 225 222 215 216 209 195 194 193 193 192
298 291 331 346 308 292 303 303 310 308 298 301 286 267 278 283 291 316 317 308 302 230 213 221 210 204 228 355 261 226 224 246 250 239 234 242 240 242 258 262 237 197 10 349 324 160 230 248 213 209 217 218 223 225 205 196 212 212 211 210 202 200 200 202 215 211 197 219 232 203 188 209 215 215 217 218 217 217 216 202 194 205 201 194 194 196 196 194
327 306 319 335 307 292 290 285 293 302 300 297 275 264 288 288 306 342 329 284 283 278 218 229 238 355 359 319 247 232 230 265 293 277 283 280 252 228 238 251 229 189 10 358 358 110 220 258 195 199 224 229 229 227 214 207 216 220 216 208 201 204 205 205 211 204 198 218 223 203 202 214 216 220 223 224 217 205 206 208 211 213 201 189 192 197 197 196
313 292 288 301 295 285 280 281 294 302 295 280 266 294 325 315 336 338 313 254 247 263 275 356 355 349 334 277 258 249 244 306 302 279 278 280 271 266 270 286 301 305 350 17 349 320 251 264 28 171 232 242 228 224 220 213 218 229 229 216 199 197 205 210 208 191 189 206 208 194 210 225 221 221 229 233 196 201 215 217 214 210 196 192 197 197 194 197
305 294 271 269 279 279 283 290 290 280 275 278 315 333 314 305 327 330 309 266 251 259 297 4 357 337 309 283 281 292 309 308 288 275 270 260 256 261 262 259 266 270 97 57 327 305 285 296 317 219 251 262 240 219 214 208 214 231 233 224 208 195 197 206 204 196 197 200 199 203 219 225 208 188 216 227 217 217 224 224 216 206 197 201 206 201 197 201